TimeEDT,TemperatureF,Dew PointF,Humidity,Sea Level PressureIn,VisibilityMPH,Wind Direction,Wind SpeedMPH,Gust SpeedMPH,PrecipitationIn,Events,Conditions,WindDirDegrees,DateUTC
12:53 AM,64.0,60.1,87,30.01,10.0,North,3.5,-,N/A,,Scattered Clouds,360,2013-07-26 04:53:00
1:53 AM,63.0,60.1,90,30.01,10.0,Calm,Calm,-,N/A,,Mostly Cloudy,0,2013-07-26 05:53:00
2:53 AM,64.0,60.1,87,29.99,10.0,Calm,Calm,-,N/A,,Partly Cloudy,0,2013-07-26 06:53:00
3:53 AM,63.0,60.1,90,30.00,10.0,Calm,Calm,-,N/A,,Mostly Cloudy,0,2013-07-26 07:53:00
4:53 AM,64.0,60.1,87,29.99,10.0,WNW,5.8,-,N/A,,Overcast,300,2013-07-26 08:53:00
5:53 AM,64.9,61.0,87,30.01,10.0,Calm,Calm,-,N/A,,Overcast,0,2013-07-26 09:53:00
6:53 AM,66.0,60.1,81,30.01,10.0,NNW,4.6,-,0.00,,Overcast,340,2013-07-26 10:53:00
7:53 AM,66.9,60.1,79,30.02,10.0,NW,5.8,-,N/A,,Overcast,310,2013-07-26 11:53:00
8:53 AM,69.1,59.0,70,30.02,10.0,Calm,Calm,-,N/A,,Clear,0,2013-07-26 12:53:00
9:53 AM,72.0,57.9,61,30.04,10.0,North,3.5,-,N/A,,Overcast,350,2013-07-26 13:53:00
10:53 AM,73.0,61.0,66,30.04,10.0,Calm,Calm,-,N/A,,Overcast,0,2013-07-26 14:53:00
11:53 AM,75.0,62.1,64,30.04,10.0,Calm,Calm,-,N/A,,Overcast,0,2013-07-26 15:53:00
12:53 PM,78.1,60.1,54,30.02,10.0,Calm,Calm,-,N/A,,Mostly Cloudy,0,2013-07-26 16:53:00
1:53 PM,80.1,59.0,48,30.01,10.0,Variable,6.9,-,N/A,,Partly Cloudy,0,2013-07-26 17:53:00
2:53 PM,82.0,57.0,42,30.00,10.0,Variable,3.5,-,N/A,,Clear,0,2013-07-26 18:53:00
3:53 PM,81.0,57.9,45,30.00,10.0,Variable,3.5,-,N/A,,Clear,0,2013-07-26 19:53:00
4:53 PM,82.0,55.9,41,30.00,10.0,WNW,5.8,-,N/A,,Partly Cloudy,300,2013-07-26 20:53:00
5:53 PM,81.0,57.0,44,29.99,10.0,Calm,Calm,-,N/A,,Clear,0,2013-07-26 21:53:00
6:53 PM,80.1,57.0,45,30.00,10.0,Calm,Calm,-,N/A,,Clear,0,2013-07-26 22:53:00
7:53 PM,73.0,60.1,64,30.00,10.0,Calm,Calm,-,N/A,,Clear,0,2013-07-26 23:53:00
8:53 PM,68.0,63.0,84,30.01,10.0,Calm,Calm,-,N/A,,Clear,0,2013-07-27 00:53:00
9:53 PM,64.9,61.0,87,30.02,10.0,Calm,Calm,-,N/A,,Clear,0,2013-07-27 01:53:00
10:53 PM,64.0,61.0,90,30.03,10.0,Calm,Calm,-,N/A,,Clear,0,2013-07-27 02:53:00
11:53 PM,62.1,60.1,93,30.04,10.0,Calm,Calm,-,N/A,,Clear,0,2013-07-27 03:53:00